VPBKM WIMM-VNKT

Flight info

Callsign VPBKM
Flight time 3h 58m
Altitude 32000
Route GOTLA G468 VPG Y351 DUBAX R325 IKULA L515 OBMOG M770 SADUS/N0488F340 M770 BUBKO M773 LEGOS/N0487F330 M773 CEA/N0485F340 R325 KABEM DCT MUNAL MUNAL2R
Aircraft CL60/M-SBDE2E3FGHIJ1RWXYZ/LB1

Departure

Time 2026-04-20 12:33
Airport Kualanamu International Airport (WIMM)

Arrival

Time 2026-04-20 16:31
Airport Tribhuvan International Airport (VNKT)
Time Latitude Longitude Altitude Speed Heading
2026-04-20 11:33 3.63577 98.88354 32 ft 0 kts 135°
2026-04-20 12:26 3.63575 98.88355 31 ft 1 kts 159°
2026-04-20 12:27 3.63568 98.88342 31 ft 3 kts 310°
2026-04-20 12:27 3.63599 98.88325 31 ft 6 kts 332°
2026-04-20 12:27 3.63646 98.88314 31 ft 7 kts 27°
2026-04-20 12:27 3.63686 98.88353 31 ft 9 kts 45°
2026-04-20 12:28 3.63740 98.88406 31 ft 11 kts 45°
2026-04-20 12:28 3.63811 98.88453 31 ft 13 kts 354°
2026-04-20 12:28 3.63889 98.88387 31 ft 18 kts 315°
2026-04-20 12:28 3.63994 98.88281 31 ft 22 kts 314°
2026-04-20 12:29 3.64092 98.88184 31 ft 10 kts 316°
2026-04-20 12:29 3.64163 98.88193 31 ft 12 kts 31°
2026-04-20 12:29 3.64253 98.88148 31 ft 17 kts 315°
2026-04-20 12:29 3.64340 98.88061 31 ft 12 kts 315°
2026-04-20 12:30 3.64419 98.88067 31 ft 14 kts 46°
2026-04-20 12:30 3.64510 98.88159 31 ft 19 kts 45°
2026-04-20 12:30 3.64610 98.88258 31 ft 20 kts 45°
2026-04-20 12:30 3.64715 98.88363 31 ft 20 kts 45°
2026-04-20 12:31 3.64779 98.88417 31 ft 11 kts 13°
2026-04-20 12:31 3.64843 98.88376 31 ft 12 kts 313°
2026-04-20 12:31 3.64908 98.88309 31 ft 13 kts 314°
2026-04-20 12:31 3.64961 98.88229 31 ft 8 kts 261°
2026-04-20 12:32 3.64933 98.88197 31 ft 6 kts 224°
2026-04-20 12:32 3.64790 98.88055 31 ft 68 kts 225°
2026-04-20 12:32 3.64259 98.87526 32 ft 142 kts 224°
2026-04-20 12:32 3.63435 98.86697 227 ft 180 kts 226°
2026-04-20 12:33 3.62522 98.85785 838 ft 189 kts 225°
2026-04-20 12:33 3.61550 98.84865 1429 ft 194 kts 225°
2026-04-20 12:33 3.60528 98.83917 1897 ft 203 kts 225°
2026-04-20 12:33 3.59594 98.82861 2235 ft 216 kts 248°
2026-04-20 12:34 3.59419 98.81331 2522 ft 227 kts 289°
2026-04-20 12:34 3.60079 98.79877 2816 ft 232 kts 300°
2026-04-20 12:34 3.60840 98.78435 3072 ft 231 kts 299°
2026-04-20 12:34 3.61593 98.76992 3329 ft 228 kts 300°
2026-04-20 12:35 3.62582 98.75781 3571 ft 226 kts 329°
2026-04-20 12:35 3.64111 98.75365 3840 ft 233 kts
2026-04-20 12:35 3.65624 98.76001 4490 ft 242 kts 42°
2026-04-20 12:35 3.66692 98.77303 5413 ft 242 kts 53°
2026-04-20 12:36 3.67631 98.78719 6262 ft 244 kts 56°
2026-04-20 12:36 3.68558 98.80144 7087 ft 246 kts 55°
2026-04-20 12:36 3.69450 98.81512 7850 ft 248 kts 55°
2026-04-20 12:36 3.70418 98.82994 8590 ft 253 kts 54°
2026-04-20 12:37 3.71600 98.84298 9342 ft 254 kts 39°
2026-04-20 12:37 3.72956 98.85436 10068 ft 258 kts 39°
2026-04-20 12:37 3.74352 98.86612 10793 ft 262 kts 40°
2026-04-20 12:37 3.75745 98.87789 11512 ft 265 kts 39°
2026-04-20 12:38 3.77173 98.88996 12062 ft 277 kts 40°
2026-04-20 12:38 3.78736 98.90319 12047 ft 310 kts 39°
2026-04-20 12:38 3.80483 98.91800 12052 ft 340 kts 40°
2026-04-20 12:38 3.82361 98.93394 12292 ft 358 kts 40°
2026-04-20 12:39 3.86239 98.96690 13404 ft 370 kts 40°
2026-04-20 12:39 3.88220 98.98376 14058 ft 373 kts 40°
2026-04-20 12:39 3.90208 99.00068 14669 ft 375 kts 40°
2026-04-20 12:40 3.92210 99.01772 15238 ft 379 kts 40°
2026-04-20 12:40 3.94229 99.03490 15782 ft 382 kts 40°
2026-04-20 12:40 3.96284 99.05241 16319 ft 386 kts 40°
2026-04-20 12:40 3.98349 99.06999 16830 ft 389 kts 40°
2026-04-20 12:41 4.00413 99.08757 17316 ft 392 kts 40°
2026-04-20 12:41 4.02517 99.10549 17819 ft 395 kts 40°
2026-04-20 12:41 4.04607 99.12331 18322 ft 397 kts 40°
2026-04-20 12:41 4.06721 99.14132 18786 ft 400 kts 40°
2026-04-20 12:42 4.08854 99.15950 19256 ft 402 kts 40°
2026-04-20 12:42 4.11023 99.17799 19707 ft 405 kts 40°
2026-04-20 12:42 4.13176 99.19634 20139 ft 408 kts 40°
2026-04-20 12:42 4.15334 99.21474 20570 ft 410 kts 40°
2026-04-20 12:43 4.17544 99.23359 21013 ft 412 kts 40°
2026-04-20 12:43 4.19728 99.25221 21441 ft 413 kts 40°
2026-04-20 12:43 4.21946 99.27113 21834 ft 416 kts 40°
2026-04-20 12:43 4.24211 99.29045 22225 ft 418 kts 40°
2026-04-20 12:44 4.26557 99.31046 22643 ft 420 kts 40°
2026-04-20 12:44 4.28961 99.33112 23058 ft 423 kts 41°
2026-04-20 12:44 4.31317 99.35322 23439 ft 426 kts 43°
2026-04-20 12:44 4.33656 99.37570 23870 ft 427 kts 43°
2026-04-20 12:45 4.35953 99.39777 24245 ft 430 kts 43°
2026-04-20 12:45 4.38165 99.41901 24597 ft 432 kts 43°
2026-04-20 12:45 4.40385 99.44033 24925 ft 434 kts 43°
2026-04-20 12:45 4.42604 99.46165 25250 ft 436 kts 43°
2026-04-20 12:46 4.44838 99.48310 25576 ft 438 kts 43°
2026-04-20 12:46 4.47121 99.50502 25886 ft 441 kts 43°
2026-04-20 12:46 4.49397 99.52689 26177 ft 443 kts 43°
2026-04-20 12:46 4.51688 99.54847 26471 ft 445 kts 43°
2026-04-20 12:47 4.54038 99.57040 26767 ft 446 kts 43°
2026-04-20 12:47 4.56412 99.59257 27048 ft 448 kts 43°
2026-04-20 12:47 4.58803 99.61489 27349 ft 449 kts 43°
2026-04-20 12:47 4.61179 99.63707 27622 ft 451 kts 43°
2026-04-20 12:48 4.63509 99.65884 27870 ft 453 kts 43°
2026-04-20 12:48 4.65870 99.68089 28103 ft 455 kts 43°
2026-04-20 12:48 4.68206 99.70270 28336 ft 457 kts 43°
2026-04-20 12:48 4.70560 99.72469 28563 ft 459 kts 43°
2026-04-20 12:49 4.72985 99.74734 28794 ft 461 kts 43°
2026-04-20 12:49 4.75441 99.77029 28981 ft 463 kts 43°
2026-04-20 12:49 4.77838 99.79269 29174 ft 465 kts 43°
2026-04-20 12:49 4.80256 99.81529 29365 ft 467 kts 43°
2026-04-20 12:50 4.82704 99.83817 29555 ft 469 kts 43°
2026-04-20 12:50 4.85146 99.86099 29753 ft 470 kts 43°
2026-04-20 12:50 4.87576 99.88371 29917 ft 472 kts 43°
2026-04-20 12:50 4.90068 99.90700 30069 ft 473 kts 43°
2026-04-20 12:51 4.92559 99.93029 30217 ft 475 kts 43°
2026-04-20 12:51 4.95099 99.95404 30362 ft 477 kts 43°
2026-04-20 12:51 4.97510 99.97659 30483 ft 478 kts 43°
2026-04-20 12:51 4.99975 99.99965 30606 ft 480 kts 43°
2026-04-20 12:52 5.02436 100.02266 30739 ft 481 kts 43°
2026-04-20 12:52 5.04881 100.04554 30927 ft 480 kts 43°
2026-04-20 12:52 5.07357 100.06870 31130 ft 480 kts 43°
2026-04-20 12:52 5.09803 100.09158 31316 ft 479 kts 43°
2026-04-20 12:53 5.12214 100.11414 31481 ft 479 kts 43°
2026-04-20 12:53 5.14658 100.13701 31629 ft 480 kts 43°
2026-04-20 12:53 5.17121 100.15998 31756 ft 480 kts 43°
2026-04-20 12:54 5.22405 100.20149 31828 ft 483 kts 31°
2026-04-20 12:54 5.28523 100.23077 31834 ft 482 kts 19°
2026-04-20 12:55 5.35041 100.24573 31851 ft 479 kts
2026-04-20 12:55 5.41739 100.24523 31830 ft 476 kts 353°
2026-04-20 12:56 5.48327 100.23776 31835 ft 475 kts 353°
2026-04-20 12:56 5.54928 100.23030 31832 ft 474 kts 353°
2026-04-20 12:57 5.61499 100.22286 31839 ft 474 kts 353°
2026-04-20 12:57 5.68101 100.21539 31845 ft 474 kts 353°
2026-04-20 12:58 5.74706 100.20779 31847 ft 474 kts 353°
2026-04-20 12:58 5.81282 100.20004 31849 ft 474 kts 353°
2026-04-20 12:59 5.87909 100.19222 31849 ft 474 kts 353°
2026-04-20 12:59 5.94502 100.18445 31849 ft 473 kts 353°
2026-04-20 13:00 6.01077 100.17669 31847 ft 472 kts 353°
2026-04-20 13:00 6.07626 100.16896 31843 ft 472 kts 353°
2026-04-20 13:01 6.14167 100.16124 31836 ft 472 kts 353°
2026-04-20 13:01 6.20731 100.15350 31839 ft 473 kts 353°
2026-04-20 13:02 6.27326 100.14571 31839 ft 472 kts 353°
2026-04-20 13:02 6.33856 100.13758 31842 ft 472 kts 350°
2026-04-20 13:03 6.40193 100.11942 31843 ft 472 kts 337°
2026-04-20 13:03 6.45968 100.08724 31846 ft 472 kts 324°
2026-04-20 13:04 6.50851 100.04272 31842 ft 473 kts 312°
2026-04-20 13:04 6.55293 99.99364 31847 ft 473 kts 312°
2026-04-20 13:05 6.59739 99.94454 31848 ft 473 kts 312°
2026-04-20 13:05 6.64190 99.89538 31853 ft 474 kts 312°
2026-04-20 13:06 6.68649 99.84611 31860 ft 474 kts 313°
2026-04-20 13:06 6.73092 99.79702 31858 ft 473 kts 313°
2026-04-20 13:07 6.77518 99.74809 31857 ft 473 kts 312°
2026-04-20 13:07 6.81984 99.69871 31859 ft 473 kts 312°
2026-04-20 13:08 6.86403 99.64983 31862 ft 474 kts 312°
2026-04-20 13:08 6.90874 99.60036 31858 ft 474 kts 313°
2026-04-20 13:09 6.95340 99.55093 31858 ft 474 kts 313°
2026-04-20 13:09 6.99776 99.50181 31853 ft 474 kts 313°
2026-04-20 13:10 7.04312 99.45315 31850 ft 474 kts 314°
2026-04-20 13:10 7.08851 99.40481 31853 ft 473 kts 314°
2026-04-20 13:11 7.13338 99.35698 31852 ft 474 kts 314°
2026-04-20 13:11 7.17507 99.31247 31849 ft 474 kts 314°
2026-04-20 13:12 7.22097 99.26352 31848 ft 474 kts 314°
2026-04-20 13:12 7.26654 99.21493 31846 ft 475 kts 314°
2026-04-20 13:13 7.31197 99.16644 31848 ft 475 kts 314°
2026-04-20 13:13 7.35763 99.11770 31844 ft 475 kts 313°
2026-04-20 13:14 7.40292 99.06933 31846 ft 475 kts 314°
2026-04-20 13:14 7.44852 99.02060 31846 ft 475 kts 314°
2026-04-20 13:15 7.49450 98.97146 31842 ft 476 kts 314°
2026-04-20 13:15 7.54036 98.92242 31843 ft 476 kts 314°
2026-04-20 13:16 7.58602 98.87358 31846 ft 476 kts 314°
2026-04-20 13:16 7.63182 98.82458 31845 ft 477 kts 314°
2026-04-20 13:17 7.67745 98.77573 31844 ft 476 kts 314°
2026-04-20 13:17 7.72325 98.72665 31844 ft 477 kts 314°
2026-04-20 13:18 7.76855 98.67776 31846 ft 477 kts 314°
2026-04-20 13:18 7.81419 98.62879 31845 ft 478 kts 314°
2026-04-20 13:19 7.86002 98.57964 31838 ft 479 kts 314°
2026-04-20 13:19 7.90588 98.53044 31842 ft 480 kts 314°
2026-04-20 13:20 7.95170 98.48127 31837 ft 479 kts 314°
2026-04-20 13:20 7.99759 98.43200 31834 ft 479 kts 314°
2026-04-20 13:21 8.04330 98.38291 31839 ft 479 kts 314°
2026-04-20 13:21 8.08933 98.33397 31841 ft 480 kts 316°
2026-04-20 13:22 8.14255 98.29326 31844 ft 478 kts 331°
2026-04-20 13:22 8.20233 98.26256 31843 ft 479 kts 334°
2026-04-20 13:23 8.26231 98.23242 31844 ft 478 kts 334°
2026-04-20 13:23 8.32191 98.20246 31843 ft 478 kts 334°
2026-04-20 13:24 8.38190 98.17230 31846 ft 478 kts 334°
2026-04-20 13:24 8.44158 98.14227 31846 ft 479 kts 334°
2026-04-20 13:25 8.50227 98.11173 31845 ft 485 kts 334°
2026-04-20 13:25 8.56341 98.08096 31848 ft 490 kts 334°
2026-04-20 13:26 8.62489 98.05005 31854 ft 491 kts 334°
2026-04-20 13:26 8.68642 98.01910 31857 ft 490 kts 334°
2026-04-20 13:27 8.74800 97.98812 31864 ft 490 kts 334°
2026-04-20 13:27 8.80986 97.95699 31860 ft 490 kts 334°
2026-04-20 13:28 8.87196 97.92571 31860 ft 489 kts 334°
2026-04-20 13:28 8.93373 97.89459 31863 ft 489 kts 334°
2026-04-20 13:29 8.99579 97.86333 31866 ft 490 kts 334°
2026-04-20 13:29 9.05878 97.83154 31867 ft 490 kts 334°
2026-04-20 13:30 9.12142 97.79990 31866 ft 490 kts 334°
2026-04-20 13:30 9.18349 97.76855 31864 ft 490 kts 334°
2026-04-20 13:31 9.24576 97.73708 31867 ft 490 kts 334°
2026-04-20 13:31 9.30783 97.70569 31867 ft 489 kts 334°
2026-04-20 13:32 9.36962 97.67444 31866 ft 490 kts 335°
2026-04-20 13:32 9.43141 97.64317 31864 ft 490 kts 334°
2026-04-20 13:33 9.49349 97.61174 31865 ft 490 kts 334°
2026-04-20 13:33 9.55518 97.58051 31866 ft 491 kts 335°
2026-04-20 13:34 9.61747 97.54894 31868 ft 490 kts 335°
2026-04-20 13:34 9.67983 97.51733 31861 ft 491 kts 335°
2026-04-20 13:35 9.74177 97.48592 31860 ft 491 kts 335°
2026-04-20 13:35 9.80419 97.45426 31852 ft 491 kts 335°
2026-04-20 13:36 9.86686 97.42246 31845 ft 491 kts 335°
2026-04-20 13:36 9.92913 97.39085 31845 ft 491 kts 335°
2026-04-20 13:37 9.99145 97.35919 31845 ft 491 kts 335°
2026-04-20 13:37 10.05415 97.32760 31846 ft 491 kts 335°
2026-04-20 13:38 10.11689 97.29604 31847 ft 491 kts 335°
2026-04-20 13:38 10.17884 97.26487 31860 ft 491 kts 335°
2026-04-20 13:39 10.24146 97.23335 31862 ft 491 kts 335°
2026-04-20 13:39 10.30459 97.20156 31863 ft 491 kts 335°
2026-04-20 13:40 10.36785 97.16969 31865 ft 491 kts 335°
2026-04-20 13:40 10.43125 97.13773 31869 ft 491 kts 335°
2026-04-20 13:41 10.49383 97.10617 31868 ft 491 kts 335°
2026-04-20 13:41 10.55675 97.07443 31867 ft 491 kts 335°
2026-04-20 13:42 10.61896 97.04303 31866 ft 491 kts 334°
2026-04-20 13:42 10.71335 96.99535 31864 ft 491 kts 334°
2026-04-20 13:43 10.77570 96.96385 31865 ft 492 kts 335°
2026-04-20 13:43 10.83867 96.93201 31869 ft 492 kts 334°
2026-04-20 13:44 10.90111 96.90044 31863 ft 492 kts 334°
2026-04-20 13:44 10.96367 96.86878 31865 ft 492 kts 334°
2026-04-20 13:45 11.02553 96.83746 31857 ft 492 kts 334°
2026-04-20 13:45 11.08805 96.80579 31849 ft 492 kts 334°
2026-04-20 13:46 11.15039 96.77421 31850 ft 492 kts 334°
2026-04-20 13:46 11.21272 96.74261 31849 ft 492 kts 334°
2026-04-20 13:47 11.27591 96.71056 31853 ft 493 kts 334°
2026-04-20 13:47 11.33862 96.67873 31857 ft 493 kts 334°
2026-04-20 13:48 11.40102 96.64704 31856 ft 492 kts 334°
2026-04-20 13:48 11.46366 96.61523 31859 ft 492 kts 334°
2026-04-20 13:49 11.52771 96.58267 31857 ft 493 kts 334°
2026-04-20 13:49 11.59162 96.55018 31858 ft 493 kts 334°
2026-04-20 13:50 11.65546 96.51770 31863 ft 493 kts 334°
2026-04-20 13:50 11.71736 96.48619 31866 ft 493 kts 334°
2026-04-20 13:51 11.78158 96.45348 31866 ft 493 kts 334°
2026-04-20 13:51 11.84518 96.42108 31866 ft 492 kts 334°
2026-04-20 13:52 11.90638 96.38390 31866 ft 493 kts 323°
2026-04-20 13:52 11.95853 96.33410 31866 ft 494 kts 315°
2026-04-20 13:53 12.00952 96.28187 31866 ft 494 kts 315°
2026-04-20 13:53 12.06017 96.22995 31866 ft 494 kts 315°
2026-04-20 13:54 12.11086 96.17796 31865 ft 494 kts 315°
2026-04-20 13:54 12.16154 96.12595 31865 ft 494 kts 315°
2026-04-20 13:55 12.21231 96.07380 31866 ft 493 kts 315°
2026-04-20 13:55 12.26306 96.02165 31865 ft 493 kts 315°
2026-04-20 13:56 12.31384 95.96943 31866 ft 493 kts 315°
2026-04-20 13:56 12.36510 95.91669 31866 ft 493 kts 315°
2026-04-20 13:57 12.41584 95.86445 31866 ft 492 kts 315°
2026-04-20 13:57 12.46574 95.81304 31869 ft 492 kts 315°
2026-04-20 13:58 12.51569 95.76154 31867 ft 492 kts 315°
2026-04-20 13:58 12.56608 95.70956 31872 ft 491 kts 315°
2026-04-20 13:59 12.61587 95.65818 31874 ft 491 kts 315°
2026-04-20 13:59 12.66539 95.60704 31874 ft 490 kts 315°
2026-04-20 14:00 12.71431 95.55649 31868 ft 490 kts 315°
2026-04-20 14:00 12.76356 95.50558 31867 ft 489 kts 315°
2026-04-20 14:01 12.81345 95.45396 31869 ft 488 kts 315°
2026-04-20 14:01 12.86288 95.40248 31867 ft 487 kts 313°
2026-04-20 14:02 12.91197 95.35030 31866 ft 486 kts 313°
2026-04-20 14:02 12.96005 95.29916 31866 ft 487 kts 313°
2026-04-20 14:03 13.00806 95.24809 31865 ft 488 kts 313°
2026-04-20 14:03 13.05712 95.19587 31865 ft 489 kts 313°
2026-04-20 14:04 13.10591 95.14390 31866 ft 489 kts 313°
2026-04-20 14:04 13.15429 95.09234 31866 ft 489 kts 313°
2026-04-20 14:05 13.20354 95.03983 31865 ft 489 kts 313°
2026-04-20 14:05 13.25289 94.98717 31866 ft 488 kts 313°
2026-04-20 14:06 13.30260 94.93410 31867 ft 488 kts 313°
2026-04-20 14:06 13.35206 94.88126 31868 ft 488 kts 313°
2026-04-20 14:07 13.40187 94.82802 31873 ft 489 kts 313°
2026-04-20 14:07 13.45086 94.77561 31877 ft 488 kts 313°
2026-04-20 14:08 13.50063 94.72235 31879 ft 488 kts 313°
2026-04-20 14:08 13.54981 94.66967 31881 ft 487 kts 313°
2026-04-20 14:09 13.59841 94.61758 31877 ft 487 kts 313°
2026-04-20 14:09 13.64839 94.56399 31874 ft 487 kts 313°
2026-04-20 14:10 13.69759 94.51118 31868 ft 486 kts 313°
2026-04-20 14:10 13.74693 94.45820 31866 ft 486 kts 313°
2026-04-20 14:11 13.79628 94.40517 31865 ft 486 kts 313°
2026-04-20 14:11 13.84544 94.35230 31865 ft 486 kts 313°
2026-04-20 14:12 13.89356 94.30053 31866 ft 486 kts 313°
2026-04-20 14:12 13.94142 94.24900 31865 ft 485 kts 313°
2026-04-20 14:13 13.98989 94.19679 31866 ft 485 kts 313°
2026-04-20 14:13 14.03807 94.14484 31867 ft 485 kts 313°
2026-04-20 14:14 14.08731 94.09173 31866 ft 485 kts 313°
2026-04-20 14:14 14.13462 94.04066 31866 ft 485 kts 313°
2026-04-20 14:15 14.18328 93.98808 31866 ft 485 kts 313°
2026-04-20 14:15 14.23180 93.93564 31868 ft 485 kts 313°
2026-04-20 14:16 14.28036 93.88312 31872 ft 484 kts 313°
2026-04-20 14:16 14.32869 93.83080 31879 ft 483 kts 313°
2026-04-20 14:17 14.37695 93.77853 31881 ft 483 kts 312°
2026-04-20 14:17 14.42486 93.72662 31881 ft 483 kts 313°
2026-04-20 14:18 14.47315 93.67423 31878 ft 482 kts 312°
2026-04-20 14:18 14.52098 93.62232 31873 ft 482 kts 312°
2026-04-20 14:19 14.56970 93.56941 31866 ft 482 kts 313°
2026-04-20 14:19 14.61644 93.51862 31866 ft 481 kts 313°
2026-04-20 14:20 14.66431 93.46655 31866 ft 481 kts 312°
2026-04-20 14:20 14.71239 93.41424 31866 ft 481 kts 312°
2026-04-20 14:21 14.75957 93.36285 31867 ft 480 kts 312°
2026-04-20 14:21 14.80738 93.31076 31867 ft 479 kts 312°
2026-04-20 14:22 14.85523 93.25857 31865 ft 479 kts 312°
2026-04-20 14:22 14.90321 93.20622 31863 ft 478 kts 312°
2026-04-20 14:23 14.95055 93.15453 31865 ft 478 kts 312°
2026-04-20 14:23 14.99801 93.10265 31863 ft 478 kts 312°
2026-04-20 14:24 15.04516 93.05109 31868 ft 477 kts 312°
2026-04-20 14:24 15.09226 92.99956 31866 ft 476 kts 312°
2026-04-20 14:25 15.13728 92.95026 31867 ft 475 kts 312°
2026-04-20 14:25 15.18141 92.90190 31874 ft 474 kts 312°
2026-04-20 14:26 15.22748 92.85138 31888 ft 475 kts 312°
2026-04-20 14:26 15.27317 92.80125 31882 ft 475 kts 312°
2026-04-20 14:27 15.31928 92.75061 31882 ft 475 kts 312°
2026-04-20 14:27 15.36521 92.70016 31880 ft 474 kts 312°
2026-04-20 14:28 15.41104 92.64977 31880 ft 473 kts 312°
2026-04-20 14:28 15.45739 92.60050 31874 ft 473 kts 314°
2026-04-20 14:29 15.50474 92.55133 31870 ft 473 kts 314°
2026-04-20 14:29 15.55198 92.50223 31867 ft 473 kts 314°
2026-04-20 14:30 15.60037 92.45189 31865 ft 472 kts 314°
2026-04-20 14:30 15.64896 92.40130 31866 ft 472 kts 313°
2026-04-20 14:31 15.69711 92.35113 31865 ft 472 kts 313°
2026-04-20 14:31 15.74571 92.30046 31864 ft 472 kts 313°
2026-04-20 14:32 15.79419 92.24988 31865 ft 471 kts 313°
2026-04-20 14:32 15.84276 92.19916 31866 ft 470 kts 313°
2026-04-20 14:33 15.89125 92.14848 31866 ft 470 kts 313°
2026-04-20 14:33 15.93959 92.09794 31866 ft 469 kts 313°
2026-04-20 14:34 15.98870 92.04655 31866 ft 469 kts 313°
2026-04-20 14:34 16.03525 91.99779 31863 ft 469 kts 313°
2026-04-20 14:35 16.08155 91.94927 31865 ft 469 kts 313°
2026-04-20 14:35 16.12786 91.90070 31861 ft 469 kts 313°
2026-04-20 14:36 16.17449 91.85177 31871 ft 469 kts 313°
2026-04-20 14:36 16.22144 91.80246 31886 ft 469 kts 313°
2026-04-20 14:37 16.26814 91.75338 31884 ft 469 kts 312°
2026-04-20 14:37 16.31629 91.70274 31880 ft 469 kts 312°
2026-04-20 14:38 16.36488 91.65160 31878 ft 469 kts 312°
2026-04-20 14:38 16.41287 91.60105 31880 ft 469 kts 312°
2026-04-20 14:39 16.46054 91.55081 31873 ft 469 kts 312°
2026-04-20 14:39 16.50745 91.50133 31862 ft 469 kts 312°
2026-04-20 14:40 16.55565 91.45045 31862 ft 469 kts 312°
2026-04-20 14:40 16.60338 91.40003 31863 ft 469 kts 312°
2026-04-20 14:41 16.65143 91.34924 31864 ft 469 kts 312°
2026-04-20 14:41 16.69918 91.29872 31864 ft 470 kts 311°
2026-04-20 14:42 16.74751 91.24757 31866 ft 469 kts 311°
2026-04-20 14:42 16.79473 91.19752 31862 ft 468 kts 311°
2026-04-20 14:43 16.84287 91.14649 31865 ft 468 kts 311°
2026-04-20 14:43 16.89030 91.09616 31865 ft 468 kts 311°
2026-04-20 14:44 16.93907 91.04437 31864 ft 469 kts 311°
2026-04-20 14:44 16.98670 90.99374 31865 ft 470 kts 311°
2026-04-20 14:45 17.03383 90.94362 31861 ft 470 kts 311°
2026-04-20 14:45 17.08178 90.89259 31861 ft 470 kts 311°
2026-04-20 14:46 17.12927 90.84199 31864 ft 469 kts 311°
2026-04-20 14:46 17.17696 90.79116 31865 ft 469 kts 311°
2026-04-20 14:47 17.22499 90.73991 31866 ft 469 kts 311°
2026-04-20 14:48 17.29495 90.66519 31865 ft 470 kts 311°
2026-04-20 14:48 17.34257 90.61429 31864 ft 470 kts 311°
2026-04-20 14:49 17.39041 90.56312 31859 ft 470 kts 311°
2026-04-20 14:49 17.43807 90.51287 31859 ft 470 kts 312°
2026-04-20 14:50 17.48648 90.46237 31857 ft 470 kts 311°
2026-04-20 14:50 17.53391 90.41285 31856 ft 470 kts 311°
2026-04-20 14:51 17.58226 90.36233 31854 ft 470 kts 311°
2026-04-20 14:51 17.63068 90.31168 31854 ft 471 kts 311°
2026-04-20 14:52 17.67969 90.26037 31851 ft 471 kts 311°
2026-04-20 14:52 17.72831 90.20944 31850 ft 471 kts 311°
2026-04-20 14:53 17.77681 90.15859 31851 ft 471 kts 311°
2026-04-20 14:53 17.82537 90.10762 31845 ft 472 kts 311°
2026-04-20 14:54 17.87471 90.05579 31844 ft 472 kts 311°
2026-04-20 14:54 17.92436 90.00361 31853 ft 473 kts 311°
2026-04-20 14:55 17.97338 89.95204 31857 ft 474 kts 311°
2026-04-20 14:55 18.02137 89.90151 31863 ft 473 kts 311°
2026-04-20 14:56 18.07050 89.84974 31863 ft 473 kts 311°
2026-04-20 14:56 18.11948 89.79808 31853 ft 473 kts 311°
2026-04-20 14:57 18.16918 89.74561 31854 ft 474 kts 311°
2026-04-20 14:57 18.21870 89.69330 31847 ft 474 kts 311°
2026-04-20 14:58 18.26760 89.64159 31843 ft 475 kts 311°
2026-04-20 14:58 18.31591 89.59047 31841 ft 475 kts 311°
2026-04-20 14:59 18.36473 89.53877 31841 ft 474 kts 310°
2026-04-20 14:59 18.41345 89.48713 31838 ft 474 kts 310°
2026-04-20 15:00 18.46102 89.43666 31837 ft 474 kts 310°
2026-04-20 15:00 18.50846 89.38629 31835 ft 474 kts 310°
2026-04-20 15:01 18.55710 89.33460 31832 ft 474 kts 310°
2026-04-20 15:01 18.60616 89.28243 31835 ft 474 kts 310°
2026-04-20 15:02 18.65496 89.23049 31836 ft 474 kts 310°
2026-04-20 15:02 18.70340 89.17889 31844 ft 474 kts 310°
2026-04-20 15:03 18.75294 89.12607 31847 ft 473 kts 310°
2026-04-20 15:03 18.80209 89.07361 31848 ft 473 kts 309°
2026-04-20 15:04 18.85214 89.02015 31848 ft 473 kts 309°
2026-04-20 15:04 18.90164 88.96725 31846 ft 472 kts 309°
2026-04-20 15:05 18.95115 88.91428 31847 ft 472 kts 309°
2026-04-20 15:05 18.99969 88.86228 31846 ft 471 kts 309°
2026-04-20 15:06 19.02329 88.83692 31846 ft 471 kts 309°
2026-04-20 15:06 19.07207 88.78460 31845 ft 471 kts 309°
2026-04-20 15:07 19.12042 88.73275 31837 ft 471 kts 310°
2026-04-20 15:07 19.17604 88.68531 31826 ft 481 kts 323°
2026-04-20 15:08 19.23985 88.65310 31825 ft 490 kts 336°
2026-04-20 15:08 19.30869 88.63507 31825 ft 495 kts 343°
2026-04-20 15:09 19.37867 88.61874 31830 ft 496 kts 342°
2026-04-20 15:09 19.44939 88.60221 31835 ft 495 kts 342°
2026-04-20 15:10 19.52125 88.58540 31831 ft 496 kts 342°
2026-04-20 15:10 19.59202 88.56884 31829 ft 496 kts 342°
2026-04-20 15:11 19.66518 88.55171 31828 ft 495 kts 342°
2026-04-20 15:11 19.73789 88.53468 31826 ft 495 kts 342°
2026-04-20 15:12 19.81197 88.51730 31825 ft 495 kts 342°
2026-04-20 15:12 19.88511 88.50011 31827 ft 495 kts 342°
2026-04-20 15:13 19.95873 88.48281 31826 ft 495 kts 342°
2026-04-20 15:13 20.03084 88.46584 31825 ft 496 kts 342°
2026-04-20 15:14 20.10429 88.44855 31824 ft 495 kts 342°
2026-04-20 15:14 20.16934 88.43323 31817 ft 493 kts 342°
2026-04-20 15:15 20.23824 88.41698 31812 ft 492 kts 342°
2026-04-20 15:15 20.30614 88.40095 31814 ft 492 kts 342°
2026-04-20 15:16 20.37400 88.38490 31807 ft 491 kts 342°
2026-04-20 15:16 20.44222 88.36877 31800 ft 491 kts 342°
2026-04-20 15:17 20.50978 88.35278 31805 ft 490 kts 342°
2026-04-20 15:17 20.57709 88.33682 31794 ft 490 kts 342°
2026-04-20 15:18 20.64362 88.32104 31784 ft 490 kts 342°
2026-04-20 15:18 20.71189 88.30484 31782 ft 489 kts 342°
2026-04-20 15:19 20.78023 88.28860 31795 ft 488 kts 342°
2026-04-20 15:19 20.84544 88.27306 31781 ft 488 kts 342°
2026-04-20 15:20 20.91574 88.25635 31777 ft 487 kts 343°
2026-04-20 15:20 20.98547 88.24018 31769 ft 487 kts 343°
2026-04-20 15:21 21.05490 88.22411 31765 ft 486 kts 343°
2026-04-20 15:21 21.12383 88.20814 31767 ft 486 kts 342°
2026-04-20 15:22 21.19010 88.19276 31766 ft 486 kts 342°
2026-04-20 15:22 21.25676 88.17728 31747 ft 487 kts 343°
2026-04-20 15:23 21.32353 88.16177 31763 ft 488 kts 343°
2026-04-20 15:23 21.39057 88.14617 31757 ft 488 kts 343°
2026-04-20 15:24 21.45731 88.13063 31751 ft 489 kts 342°
2026-04-20 15:24 21.52428 88.11502 31733 ft 489 kts 342°
2026-04-20 15:25 21.59191 88.10227 31732 ft 495 kts 350°
2026-04-20 15:25 21.66178 88.10400 31734 ft 505 kts
2026-04-20 15:26 21.73069 88.12209 31736 ft 512 kts 13°
2026-04-20 15:26 21.79915 88.14562 31740 ft 513 kts 13°
2026-04-20 15:27 21.86765 88.16912 31733 ft 513 kts 14°
2026-04-20 15:27 21.93589 88.19256 31742 ft 514 kts 13°
2026-04-20 15:28 22.00456 88.21616 31729 ft 515 kts 13°
2026-04-20 15:28 22.07300 88.23971 31727 ft 515 kts 13°
2026-04-20 15:29 22.14183 88.26340 31732 ft 515 kts 13°
2026-04-20 15:29 22.21074 88.28714 31732 ft 516 kts 13°
2026-04-20 15:30 22.27945 88.31084 31738 ft 515 kts 13°
2026-04-20 15:30 22.34792 88.33448 31740 ft 515 kts 13°
2026-04-20 15:31 22.41694 88.35832 31745 ft 516 kts 13°
2026-04-20 15:31 22.48552 88.38204 31743 ft 516 kts 13°
2026-04-20 15:32 22.55497 88.40445 31745 ft 513 kts
2026-04-20 15:32 22.62558 88.41306 31745 ft 501 kts 354°
2026-04-20 15:33 22.69430 88.40554 31738 ft 490 kts 341°
2026-04-20 15:33 22.75872 88.38309 31736 ft 480 kts 329°
2026-04-20 15:34 22.81637 88.34770 31730 ft 470 kts 320°
2026-04-20 15:34 22.87124 88.30829 31728 ft 470 kts 320°
2026-04-20 15:35 22.92602 88.26893 31726 ft 470 kts 320°
2026-04-20 15:35 22.98055 88.22970 31720 ft 470 kts 319°
2026-04-20 15:36 23.03537 88.19021 31722 ft 470 kts 319°
2026-04-20 15:36 23.08995 88.15084 31723 ft 470 kts 319°
2026-04-20 15:37 23.14461 88.11138 31721 ft 470 kts 319°
2026-04-20 15:37 23.19941 88.07177 31720 ft 469 kts 319°
2026-04-20 15:38 23.25385 88.03237 31720 ft 469 kts 319°
2026-04-20 15:38 23.30839 87.99287 31719 ft 468 kts 319°
2026-04-20 15:39 23.36274 87.95345 31713 ft 468 kts 319°
2026-04-20 15:39 23.41744 87.91375 31722 ft 468 kts 319°
2026-04-20 15:40 23.47170 87.87432 31719 ft 467 kts 319°
2026-04-20 15:40 23.52575 87.83501 31716 ft 467 kts 319°
2026-04-20 15:41 23.58011 87.79542 31708 ft 467 kts 319°
2026-04-20 15:41 23.63474 87.75560 31702 ft 468 kts 319°
2026-04-20 15:42 23.68923 87.71584 31696 ft 468 kts 319°
2026-04-20 15:42 23.74349 87.67621 31691 ft 468 kts 319°
2026-04-20 15:43 23.79761 87.63663 31694 ft 468 kts 319°
2026-04-20 15:43 23.85190 87.59690 31698 ft 467 kts 319°
2026-04-20 15:44 23.90614 87.55716 31702 ft 467 kts 319°
2026-04-20 15:44 23.96034 87.51741 31703 ft 466 kts 319°
2026-04-20 15:45 24.01453 87.47762 31706 ft 466 kts 319°
2026-04-20 15:45 24.06859 87.43789 31713 ft 465 kts 319°
2026-04-20 15:46 24.12235 87.39834 31716 ft 465 kts 319°
2026-04-20 15:46 24.17545 87.35930 31720 ft 466 kts 319°
2026-04-20 15:47 24.23337 87.32502 31718 ft 472 kts 325°
2026-04-20 15:47 24.29238 87.29214 31719 ft 471 kts 325°
2026-04-20 15:48 24.35106 87.25938 31715 ft 471 kts 325°
2026-04-20 15:48 24.40973 87.22656 31718 ft 470 kts 325°
2026-04-20 15:49 24.46826 87.19379 31719 ft 470 kts 325°
2026-04-20 15:49 24.52661 87.16106 31713 ft 470 kts 325°
2026-04-20 15:50 24.58473 87.12805 31705 ft 469 kts 324°
2026-04-20 15:50 24.64299 87.09457 31698 ft 468 kts 324°
2026-04-20 15:51 24.70091 87.06125 31690 ft 467 kts 324°
2026-04-20 15:51 24.75881 87.02790 31694 ft 466 kts 324°
2026-04-20 15:52 24.81664 86.99455 31688 ft 466 kts 324°
2026-04-20 15:52 24.87415 86.96136 31677 ft 465 kts 324°
2026-04-20 15:53 24.96060 86.91138 31666 ft 464 kts 324°
2026-04-20 15:53 25.01779 86.87828 31669 ft 462 kts 324°
2026-04-20 15:54 25.07527 86.84496 31658 ft 461 kts 324°
2026-04-20 15:54 25.13194 86.81214 31660 ft 454 kts 324°
2026-04-20 15:55 25.18808 86.77953 31657 ft 451 kts 324°
2026-04-20 15:55 25.24383 86.74740 31670 ft 451 kts 324°
2026-04-20 15:56 25.30017 86.71535 31669 ft 451 kts 324°
2026-04-20 15:56 25.35587 86.68363 31661 ft 451 kts 324°
2026-04-20 15:57 25.41202 86.65160 31667 ft 452 kts 324°
2026-04-20 15:57 25.46837 86.61944 31664 ft 452 kts 324°
2026-04-20 15:58 25.52470 86.58725 31666 ft 452 kts 324°
2026-04-20 15:58 25.58086 86.55512 31660 ft 452 kts 324°
2026-04-20 15:59 25.63709 86.52292 31662 ft 452 kts 324°
2026-04-20 15:59 25.69315 86.49078 31664 ft 453 kts 324°
2026-04-20 16:00 25.74933 86.45853 31666 ft 453 kts 324°
2026-04-20 16:00 25.80569 86.42615 31664 ft 453 kts 324°
2026-04-20 16:01 25.86228 86.39420 31657 ft 455 kts 326°
2026-04-20 16:01 25.91938 86.36285 31653 ft 455 kts 326°
2026-04-20 16:02 25.97356 86.33307 31656 ft 455 kts 325°
2026-04-20 16:02 26.03221 86.30079 31666 ft 454 kts 325°
2026-04-20 16:03 26.08887 86.26956 31661 ft 454 kts 325°
2026-04-20 16:03 26.14563 86.23824 31665 ft 454 kts 325°
2026-04-20 16:04 26.20211 86.20703 31668 ft 454 kts 325°
2026-04-20 16:04 26.25988 86.17508 31677 ft 454 kts 325°
2026-04-20 16:05 26.31667 86.14363 31683 ft 455 kts 325°
2026-04-20 16:05 26.37365 86.11204 31674 ft 455 kts 325°
2026-04-20 16:06 26.43041 86.08054 31686 ft 454 kts 325°
2026-04-20 16:06 26.48745 86.04886 31669 ft 454 kts 325°
2026-04-20 16:07 26.54385 86.01749 31685 ft 454 kts 325°
2026-04-20 16:07 26.60082 85.98576 31688 ft 454 kts 325°
2026-04-20 16:08 26.65691 85.95324 31687 ft 447 kts 319°
2026-04-20 16:08 26.70734 85.91317 31684 ft 444 kts 316°
2026-04-20 16:09 26.75784 85.87231 31688 ft 444 kts 316°
2026-04-20 16:09 26.80820 85.83151 31042 ft 451 kts 317°
2026-04-20 16:10 26.83381 85.81077 30411 ft 449 kts 316°
2026-04-20 16:10 26.85900 85.79036 29751 ft 450 kts 316°
2026-04-20 16:10 26.88453 85.76965 29069 ft 451 kts 317°
2026-04-20 16:10 26.91032 85.74874 28357 ft 452 kts 317°
2026-04-20 16:11 26.93589 85.72798 27689 ft 453 kts 317°
2026-04-20 16:11 26.96157 85.70714 26938 ft 455 kts 318°
2026-04-20 16:11 26.98746 85.68611 26247 ft 453 kts 319°
2026-04-20 16:11 27.01291 85.66546 25547 ft 445 kts 319°
2026-04-20 16:12 27.03766 85.64537 24861 ft 436 kts 319°
2026-04-20 16:12 27.06227 85.62537 24207 ft 427 kts 319°
2026-04-20 16:12 27.08527 85.60480 23530 ft 414 kts 311°
2026-04-20 16:12 27.10263 85.57959 22913 ft 399 kts 297°
2026-04-20 16:13 27.11300 85.55233 22292 ft 389 kts 285°
2026-04-20 16:13 27.11741 85.52194 21557 ft 383 kts 272°
2026-04-20 16:13 27.11756 85.49248 20953 ft 377 kts 270°
2026-04-20 16:13 27.11756 85.46396 20483 ft 367 kts 270°
2026-04-20 16:14 27.11758 85.43504 19870 ft 371 kts 270°
2026-04-20 16:14 27.11760 85.40590 19253 ft 369 kts 270°
2026-04-20 16:14 27.11762 85.37709 18753 ft 368 kts 270°
2026-04-20 16:14 27.12015 85.34841 18064 ft 370 kts 282°
2026-04-20 16:15 27.12943 85.32246 17489 ft 366 kts 298°
2026-04-20 16:15 27.14539 85.29990 16951 ft 369 kts 313°
2026-04-20 16:15 27.16626 85.28204 16214 ft 373 kts 323°
2026-04-20 16:15 27.18784 85.26592 15708 ft 367 kts 322°
2026-04-20 16:16 27.20928 85.24978 15168 ft 365 kts 322°
2026-04-20 16:16 27.23078 85.23357 14589 ft 363 kts 323°
2026-04-20 16:16 27.25163 85.21784 14063 ft 359 kts 323°
2026-04-20 16:16 27.27274 85.20192 13596 ft 357 kts 323°
2026-04-20 16:17 27.29351 85.18623 12885 ft 355 kts 323°
2026-04-20 16:17 27.31359 85.17068 12439 ft 345 kts 319°
2026-04-20 16:17 27.32870 85.14999 11920 ft 332 kts 294°
2026-04-20 16:17 27.33377 85.12515 11394 ft 324 kts 270°
2026-04-20 16:18 27.32885 85.10072 10880 ft 322 kts 246°
2026-04-20 16:18 27.31518 85.08101 10454 ft 320 kts 221°
2026-04-20 16:18 27.29576 85.06892 10308 ft 309 kts 206°
2026-04-20 16:18 27.27599 85.05985 10244 ft 293 kts 207°
2026-04-20 16:19 27.25748 85.05128 10213 ft 278 kts 207°
2026-04-20 16:19 27.23997 85.04316 10234 ft 261 kts 207°
2026-04-20 16:19 27.22316 85.03570 10248 ft 258 kts 200°
2026-04-20 16:19 27.20461 85.03429 10189 ft 270 kts 176°
2026-04-20 16:20 27.18678 85.04149 10147 ft 278 kts 151°
2026-04-20 16:20 27.17268 85.05695 10214 ft 283 kts 123°
2026-04-20 16:20 27.16563 85.07785 10196 ft 287 kts 96°
2026-04-20 16:20 27.16755 85.09995 10191 ft 282 kts 67°
2026-04-20 16:21 27.17772 85.11841 10202 ft 275 kts 39°
2026-04-20 16:21 27.19344 85.13015 10205 ft 266 kts 18°
2026-04-20 16:21 27.21081 85.13819 10234 ft 266 kts 17°
2026-04-20 16:21 27.22828 85.14623 10267 ft 267 kts 17°
2026-04-20 16:22 27.24555 85.15421 10272 ft 267 kts 18°
2026-04-20 16:22 27.26292 85.16225 10317 ft 266 kts 18°
2026-04-20 16:22 27.28030 85.17030 10342 ft 265 kts 18°
2026-04-20 16:22 27.29749 85.17825 10360 ft 265 kts 18°
2026-04-20 16:23 27.31486 85.18615 10372 ft 264 kts 17°
2026-04-20 16:23 27.33233 85.19405 10360 ft 265 kts 17°
2026-04-20 16:23 27.34989 85.20201 10363 ft 266 kts 17°
2026-04-20 16:23 27.36721 85.20986 10388 ft 268 kts 18°
2026-04-20 16:24 27.38486 85.21786 10414 ft 270 kts 18°
2026-04-20 16:24 27.40246 85.22584 10353 ft 269 kts 18°
2026-04-20 16:24 27.42000 85.23380 9977 ft 271 kts 18°
2026-04-20 16:24 27.43775 85.24187 9541 ft 274 kts 18°
2026-04-20 16:25 27.45622 85.24786 9125 ft 270 kts
2026-04-20 16:25 27.47461 85.24710 8772 ft 256 kts 345°
2026-04-20 16:25 27.49122 85.24222 8647 ft 231 kts 342°
2026-04-20 16:25 27.50622 85.23803 8637 ft 208 kts 347°
2026-04-20 16:26 27.52012 85.23648 8591 ft 191 kts 356°
2026-04-20 16:26 27.53342 85.23784 8232 ft 194 kts
2026-04-20 16:26 27.54646 85.24241 7734 ft 191 kts 20°
2026-04-20 16:26 27.55786 85.24961 7255 ft 184 kts 31°
2026-04-20 16:27 27.56764 85.25848 6958 ft 167 kts 36°
2026-04-20 16:27 27.57634 85.26664 6781 ft 171 kts 34°
2026-04-20 16:27 27.58549 85.27621 6582 ft 166 kts 44°
2026-04-20 16:27 27.59188 85.28574 6388 ft 137 kts 52°
2026-04-20 16:28 27.59715 85.29523 6188 ft 151 kts 52°
2026-04-20 16:28 27.60359 85.30482 5989 ft 150 kts 46°
2026-04-20 16:28 27.61074 85.31329 5803 ft 142 kts 41°
2026-04-20 16:28 27.61840 85.32046 5684 ft 144 kts 35°
2026-04-20 16:29 27.62686 85.32667 5506 ft 143 kts 28°
2026-04-20 16:29 27.63574 85.33156 5341 ft 142 kts 22°
2026-04-20 16:29 27.64494 85.33607 5161 ft 143 kts 22°
2026-04-20 16:29 27.65426 85.34006 4938 ft 140 kts 21°
2026-04-20 16:30 27.66340 85.34418 4753 ft 140 kts 22°
2026-04-20 16:30 27.67274 85.34836 4614 ft 142 kts 22°
2026-04-20 16:30 27.68197 85.35258 4445 ft 143 kts 23°
2026-04-20 16:30 27.69032 85.35635 4393 ft 124 kts 22°
2026-04-20 16:31 27.69685 85.35932 4432 ft 64 kts 18°
2026-04-20 16:31 27.69878 85.36003 4439 ft 13 kts 331°
2026-04-20 16:31 27.69906 85.35953 4440 ft 4 kts 293°
2026-04-20 16:31 27.69927 85.35924 4441 ft 4 kts 354°
2026-04-20 16:32 27.69955 85.35935 4442 ft 3 kts 23°
2026-04-20 16:32 27.69981 85.35947 4443 ft 4 kts 22°
2026-04-20 16:32 27.70019 85.35965 4444 ft 6 kts 22°
2026-04-20 16:32 27.70064 85.35985 4445 ft 7 kts 21°
2026-04-20 16:33 27.70113 85.36007 4446 ft 8 kts 22°
2026-04-20 16:33 27.70170 85.36034 4447 ft 9 kts 22°
2026-04-20 16:33 27.70203 85.36048 4447 ft 2 kts 22°
2026-04-20 16:33 27.70218 85.36041 4448 ft 3 kts 288°
2026-04-20 16:34 27.70213 85.36018 4448 ft 1 kts 224°